{"data":{"norad_id":67665,"intl_designator":"2026-022T","name":"STARLINK-36399","alt_names":[],"object_type":"PAYLOAD","status":"ACTIVE","operator":null,"country":"US","launch_date":"2026-02-02","launch_site_code":"AFWTR","launch_vehicle":null,"mission":null,"orbit_class":"UNKNOWN","rcs_meters":null,"size_class":null,"mass_kg":null,"dimensions":null,"purposes":["comms"],"wikipedia_slug":null,"has_3d_model":false,"image_url":null,"decayed_at":null,"tle_current":{"epoch":"2026-09-19T07:54:19.461888Z","epoch_age_seconds":170067,"freshness":"FRESH","line1":"1 67665U 26022T   26262.32939192  .00012177  00000+0  37894-3 0  9999","line2":"2 67665  97.2822 293.8461 0001175 132.1575 227.9768 15.33442192 35242","mean_motion":15.33442192,"eccentricity":0.0001175,"inclination_deg":97.2822,"raan_deg":293.8461,"arg_perigee_deg":132.1575,"mean_anomaly_deg":227.9768,"bstar":0.00037894,"rev_number":3524,"period_min":93.906376615467,"perigee_km":464.74739572111,"apogee_km":466.35566252546,"semimajor_km":6843.6885291233,"source":"CELESTRAK","updated_at":"2026-09-20T09:00:43.623318Z"}}}